When you browse on this site, cookies collect data to enhance your experience and personalize the content and advertising you see.
Visit our Privacy Policy to learn more. By continuing to use the site, you agree to this use of cookies and data.
  • In Deutschland
  • Länderverzeichnis
  • Für 7 Tage
  • Wassertemperatur
  • Satellitenkarten
  • Wetterkarte
  • Widgets
  • user-avatar
    Anmelden

    Stündliche Wetter Haradok

    Heute, 16 Januar, Mittwoch

    Zeit Temperatur Niederschläge Wind Luftdruck Luftfeuchtigkeit
    00:00 -8°C° 0 mm 2 m/S 731 mmHg 94%
    01:00 -8°C° 0 mm 2 m/S 731 mmHg 95%
    02:00 -8°C° 0 mm 2 m/S 731 mmHg 95%
    03:00 -10°C° 0.1 mm 3 m/S 731 mmHg 95%
    04:00 -10°C° 0.1 mm 3 m/S 731 mmHg 95%
    05:00 -10°C° 0.1 mm 3 m/S 731 mmHg 96%
    06:00 -9°C° 0.1 mm 3 m/S 731 mmHg 95%
    07:00 -9°C° 0.1 mm 3 m/S 732 mmHg 95%
    08:00 -8°C° 0.1 mm 3 m/S 732 mmHg 95%
    09:00 -7°C° 0 mm 3 m/S 733 mmHg 93%
    10:00 -7°C° 0 mm 4 m/S 733 mmHg 91%
    11:00 -7°C° 0 mm 4 m/S 734 mmHg 89%
    12:00 -7°C° 0 mm 4 m/S 735 mmHg 88%
    13:00 -7°C° 0 mm 4 m/S 735 mmHg 87%
    14:00 -7°C° 0 mm 4 m/S 735 mmHg 86%
    15:00 -8°C° 0 mm 4 m/S 736 mmHg 88%
    16:00 -8°C° 0 mm 3 m/S 737 mmHg 89%
    17:00 -9°C° 0 mm 3 m/S 737 mmHg 91%
    18:00 -10°C° 0 mm 3 m/S 738 mmHg 93%
    19:00 -10°C° 0 mm 2 m/S 738 mmHg 95%
    20:00 -12°C° 0 mm 2 m/S 738 mmHg 97%
    21:00 -12°C° 0 mm 2 m/S 738 mmHg 96%
    22:00 -12°C° 0 mm 2 m/S 738 mmHg 95%
    23:00 -13°C° 0 mm 3 m/S 738 mmHg 94%

    Morgen, 17 Januar, Donnerstag

    Zeit Temperatur Niederschläge Wind Luftdruck Luftfeuchtigkeit
    00:00 -10°C° 0 mm 3 m/S 738 mmHg 93%
    01:00 -10°C° 0 mm 4 m/S 738 mmHg 92%
    02:00 -10°C° 0 mm 5 m/S 737 mmHg 91%
    03:00 -8°C° 0.2 mm 5 m/S 736 mmHg 91%
    04:00 -8°C° 0.2 mm 6 m/S 736 mmHg 92%
    05:00 -6°C° 0.2 mm 6 m/S 735 mmHg 92%
    06:00 -5°C° 0.3 mm 6 m/S 734 mmHg 92%
    07:00 -3°C° 0.3 mm 6 m/S 734 mmHg 91%
    08:00 -2°C° 0.3 mm 7 m/S 734 mmHg 91%
    09:00 -2°C° 0.2 mm 7 m/S 733 mmHg 92%
    10:00 -2°C° 0.2 mm 7 m/S 733 mmHg 93%
    11:00 -1°C° 0.2 mm 7 m/S 732 mmHg 94%
    12:00 -1°C° 0.6 mm 7 m/S 732 mmHg 94%
    13:00 -1°C° 0.6 mm 8 m/S 731 mmHg 93%
    14:00 -1°C° 0.6 mm 8 m/S 731 mmHg 92%
    15:00 -1°C° 0.3 mm 8 m/S 731 mmHg 91%
    16:00 -2°C° 0.3 mm 7 m/S 731 mmHg 90%
    17:00 -2°C° 0.3 mm 7 m/S 731 mmHg 88%
    18:00 -2°C° 0.1 mm 7 m/S 731 mmHg 88%
    19:00 -2°C° 0.1 mm 7 m/S 731 mmHg 87%
    20:00 -2°C° 0.1 mm 6 m/S 732 mmHg 86%
    21:00 -2°C° 0.1 mm 6 m/S 732 mmHg 87%
    22:00 -2°C° 0.1 mm 6 m/S 732 mmHg 87%
    23:00 -2°C° 0.1 mm 6 m/S 732 mmHg 88%

    übermorgen, 18 Januar, Freitag

    Zeit Temperatur Niederschläge Wind Luftdruck Luftfeuchtigkeit
    00:00 -2°C° 0 mm 6 m/S 732 mmHg 88%
    01:00 -2°C° 0 mm 6 m/S 732 mmHg 88%
    02:00 -2°C° 0 mm 6 m/S 732 mmHg 88%
    03:00 -2°C° 0.4 mm 7 m/S 731 mmHg 88%
    04:00 -2°C° 0.4 mm 8 m/S 731 mmHg 87%
    05:00 -3°C° 0.4 mm 9 m/S 730 mmHg 87%
    06:00 -2°C° 0.2 mm 8 m/S 730 mmHg 85%
    07:00 -3°C° 0.2 mm 7 m/S 730 mmHg 83%
    08:00 -4°C° 0.2 mm 6 m/S 730 mmHg 82%
    09:00 -4°C° 0.1 mm 7 m/S 731 mmHg 82%
    10:00 -4°C° 0.1 mm 7 m/S 731 mmHg 83%
    11:00 -5°C° 0.1 mm 8 m/S 732 mmHg 84%
    12:00 -6°C° 0 mm 8 m/S 733 mmHg 82%
    13:00 -6°C° 0 mm 7 m/S 733 mmHg 81%
    14:00 -6°C° 0 mm 7 m/S 734 mmHg 80%
    15:00 -7°C° 0 mm 7 m/S 735 mmHg 80%
    16:00 -8°C° 0 mm 7 m/S 736 mmHg 80%
    17:00 -8°C° 0 mm 6 m/S 736 mmHg 80%
    18:00 -9°C° 0 mm 6 m/S 737 mmHg 81%
    19:00 -9°C° 0 mm 6 m/S 738 mmHg 81%
    20:00 -9°C° 0 mm 6 m/S 738 mmHg 81%
    21:00 -9°C° 0 mm 6 m/S 739 mmHg 83%
    22:00 -9°C° 0 mm 6 m/S 739 mmHg 84%
    23:00 -9°C° 0 mm 6 m/S 740 mmHg 85%

    19 Januar, Samstag

    Zeit Temperatur Niederschläge Wind Luftdruck Luftfeuchtigkeit
    00:00 -9°C° 0.1 mm 6 m/S 741 mmHg 85%
    01:00 -9°C° 0.1 mm 6 m/S 741 mmHg 85%
    02:00 -9°C° 0.1 mm 6 m/S 742 mmHg 86%
    03:00 -9°C° 0 mm 6 m/S 742 mmHg 86%
    04:00 -9°C° 0 mm 6 m/S 742 mmHg 86%
    05:00 -10°C° 0 mm 5 m/S 743 mmHg 86%
    06:00 -10°C° 0 mm 5 m/S 743 mmHg 86%
    07:00 -10°C° 0 mm 5 m/S 744 mmHg 86%
    08:00 -11°C° 0 mm 5 m/S 744 mmHg 86%
    09:00 -10°C° 0 mm 5 m/S 744 mmHg 85%
    10:00 -10°C° 0 mm 5 m/S 745 mmHg 84%
    11:00 -8°C° 0 mm 5 m/S 745 mmHg 83%
    12:00 -7°C° 0 mm 5 m/S 745 mmHg 82%
    13:00 -7°C° 0 mm 5 m/S 745 mmHg 82%
    14:00 -6°C° 0 mm 5 m/S 745 mmHg 81%
    15:00 -7°C° 0 mm 5 m/S 745 mmHg 83%
    16:00 -7°C° 0 mm 5 m/S 745 mmHg 86%
    17:00 -7°C° 0 mm 5 m/S 746 mmHg 88%
    18:00 -8°C° 0 mm 4 m/S 746 mmHg 89%
    19:00 -8°C° 0 mm 4 m/S 746 mmHg 91%
    20:00 -9°C° 0 mm 4 m/S 746 mmHg 93%
    21:00 -9°C° 0 mm 4 m/S 746 mmHg 93%
    22:00 -10°C° 0 mm 4 m/S 746 mmHg 94%
    23:00 -10°C° 0 mm 4 m/S 746 mmHg 94%

    20 Januar, Sonntag

    Zeit Temperatur Niederschläge Wind Luftdruck Luftfeuchtigkeit
    00:00 -9°C° 0 mm 3 m/S 746 mmHg 95%
    01:00 -9°C° 0 mm 3 m/S 746 mmHg 95%
    02:00 -10°C° 0 mm 3 m/S 746 mmHg 95%
    03:00 -10°C° 0 mm 3 m/S 746 mmHg 96%
    04:00 -9°C° 0 mm 2 m/S 746 mmHg 96%
    05:00 -10°C° 0 mm 2 m/S 746 mmHg 96%
    06:00 -9°C° 0.1 mm 2 m/S 746 mmHg 97%
    07:00 -9°C° 0.1 mm 2 m/S 746 mmHg 97%
    08:00 -9°C° 0.1 mm 2 m/S 746 mmHg 97%
    09:00 -8°C° 0 mm 2 m/S 746 mmHg 97%
    10:00 -7°C° 0 mm 2 m/S 746 mmHg 96%
    11:00 -7°C° 0 mm 2 m/S 746 mmHg 96%
    12:00 -6°C° 0 mm 2 m/S 746 mmHg 95%
    13:00 -6°C° 0 mm 2 m/S 746 mmHg 94%
    14:00 -6°C° 0 mm 2 m/S 746 mmHg 94%
    15:00 -7°C° 0 mm 2 m/S 746 mmHg 94%
    16:00 -7°C° 0 mm 2 m/S 746 mmHg 95%
    17:00 -7°C° 0 mm 2 m/S 746 mmHg 95%
    18:00 -7°C° 0 mm 2 m/S 746 mmHg 95%
    19:00 -8°C° 0 mm 2 m/S 746 mmHg 95%
    20:00 -8°C° 0 mm 2 m/S 746 mmHg 95%
    21:00 -8°C° 0 mm 2 m/S 747 mmHg 95%
    22:00 -8°C° 0 mm 2 m/S 747 mmHg 96%
    23:00 -9°C° 0 mm 2 m/S 747 mmHg 96%

    21 Januar, Montag

    Zeit Temperatur Niederschläge Wind Luftdruck Luftfeuchtigkeit
    00:00 -8°C° 0 mm 2 m/S 747 mmHg 96%
    01:00 -8°C° 0 mm 2 m/S 748 mmHg 96%
    02:00 -8°C° 0 mm 2 m/S 748 mmHg 96%
    03:00 -9°C° 0 mm 3 m/S 748 mmHg 94%
    04:00 -10°C° 0 mm 4 m/S 749 mmHg 92%
    05:00 -12°C° 0 mm 5 m/S 749 mmHg 90%
    06:00 -12°C° 0 mm 4 m/S 750 mmHg 91%
    07:00 -14°C° 0 mm 4 m/S 750 mmHg 92%
    08:00 -15°C° 0 mm 3 m/S 751 mmHg 93%
    09:00 -14°C° 0 mm 3 m/S 751 mmHg 93%
    10:00 -14°C° 0 mm 3 m/S 752 mmHg 92%
    11:00 -14°C° 0 mm 3 m/S 752 mmHg 91%
    12:00 -13°C° 0 mm 3 m/S 752 mmHg 90%
    13:00 -13°C° 0 mm 3 m/S 753 mmHg 89%
    14:00 -12°C° 0 mm 3 m/S 753 mmHg 88%
    15:00 -13°C° 0 mm 3 m/S 753 mmHg 90%
    16:00 -13°C° 0 mm 3 m/S 753 mmHg 91%
    17:00 -13°C° 0 mm 2 m/S 753 mmHg 92%
    18:00 -14°C° 0 mm 2 m/S 753 mmHg 94%
    19:00 -15°C° 0 mm 2 m/S 753 mmHg 95%
    20:00 -16°C° 0 mm 2 m/S 753 mmHg 97%
    21:00 -16°C° 0 mm 2 m/S 753 mmHg 97%
    22:00 -16°C° 0 mm 2 m/S 753 mmHg 97%
    23:00 -16°C° 0 mm 2 m/S 753 mmHg 97%
    Mehr zeigen